Bradford, PA

8:48 PM EST on December 17, 2017 (GMT -0500)
Bradford Regional

Weather History for KBFD - October, 2013

Change the Weather History Date:

Friday, October 4, 2013

  Actual Average Record
Temperature  
Mean Temperature 68 °F 50 °F  
Max Temperature 76 °F 61 °F 78 °F (2017)
Min Temperature 59 °F 39 °F 20 °F (1974)
Degree Days  
Heating Degree Days 0 11  
Month to date heating degree days 14 41  
Since 1 July heating degree days 390 458  
Cooling Degree Days 3 0  
Month to date cooling degree days 3 0  
Year to date cooling degree days 328 192  
Growing Degree Days 18 (Base 50)    
Moisture  
Dew Point 61 °F    
Average Humidity 83    
Maximum Humidity 97    
Minimum Humidity 68    
Precipitation  
Precipitation 0.18 in 0.12 in 0.85 in (2000)
Month to date precipitation 0.18 0.48  
Year to date precipitation 24.12 34.35  
Sea Level Pressure  
Sea Level Pressure 30.08 in    
Wind  
Wind Speed 3 mph (West)    
Max Wind Speed 12 mph    
Max Gust Speed 16 mph    
Visibility 6 miles    
Events Fog , Rain , Thunderstorm    
T = Trace of Precipitation, MM = Missing Value Source: NWS Daily Summary

Daily Weather History Graph

Daily Weather History Graph

Search for Another Location

Airport or City:

Trip Planner

Search our weather history database for the weather conditions in past years. The results will help you decide how hot, cold, wet, or windy it might be!

Date:

Astronomy

Oct. 04, 2013 Rise Set
Actual Time 7:14 AM EDT 6:50 PM EDT
Civil Twilight 6:47 AM EDT 7:18 PM EDT
Nautical Twilight 6:14 AM EDT 7:50 PM EDT
Astronomical Twilight 5:42 AM EDT 8:23 PM EDT
Moon 6:48 AM EDT (10/4) 6:31 PM EDT (10/4)
Length of Visible Light 12h 31m
Length of Day
11h 35m
Waning Crescent, 0% of the Moon is Illuminated
Oct 4
Waning Crescent
Oct 4
New
Oct 11
First Quarter
Oct 18
Full
Oct 26
Last Quarter

Hourly Weather History & Observations

Time (EDT) Temp. Dew Point Humidity Pressure Visibility Wind Dir Wind Speed Gust Speed Precip Events Conditions
12:53 AM 64.0 °F 60.1 °F 87% 30.05 in 10.0 mi Calm Calm - N/A   Overcast
1:53 AM 64.0 °F 60.1 °F 87% 30.05 in 10.0 mi SW 3.5 mph - N/A   Partly Cloudy
2:29 AM 63.0 °F 60.1 °F 90% 30.09 in 8.0 mi Calm Calm - N/A   Scattered Clouds
2:40 AM 63.0 °F 60.1 °F 90% 30.09 in 8.0 mi Calm Calm - N/A   Mostly Cloudy
2:53 AM 62.1 °F 60.1 °F 93% 30.04 in 7.0 mi Calm Calm - N/A   Overcast
3:23 AM 63.0 °F 60.1 °F 90% 30.08 in 6.0 mi Calm Calm - N/A   Overcast
3:53 AM 63.0 °F 60.1 °F 90% 30.04 in 6.0 mi Variable 4.6 mph - N/A   Overcast
4:53 AM 63.0 °F 60.1 °F 90% 30.05 in 5.0 mi Variable 4.6 mph - N/A   Overcast
5:53 AM 63.0 °F 61.0 °F 93% 30.05 in 4.0 mi SW 5.8 mph - N/A   Overcast
6:53 AM 63.0 °F 61.0 °F 93% 30.06 in 5.0 mi Variable 3.5 mph - N/A   Overcast
7:35 AM 63.0 °F 61.0 °F 93% 30.11 in 1.2 mi North - - 0.05 in Rain Light Rain
7:53 AM 63.0 °F 61.0 °F 93% 30.08 in 1.5 mi Calm Calm - 0.17 in Rain Light Rain
7:55 AM 63.0 °F 61.0 °F 93% 30.11 in 3.0 mi Calm Calm - 0.00 in Rain Light Rain
8:11 AM 63.0 °F 61.0 °F 93% 30.12 in 4.0 mi Calm Calm - 0.00 in   Overcast
8:28 AM 63.0 °F 61.0 °F 93% 30.13 in 2.5 mi SW 4.6 mph - 0.00 in   Overcast
8:38 AM 63.0 °F 61.0 °F 93% 30.13 in 2.5 mi Variable 3.5 mph - 0.00 in   Overcast
8:53 AM 63.0 °F 61.0 °F 93% 30.10 in 3.0 mi Calm Calm - 0.00 in   Overcast
9:53 AM 64.0 °F 62.1 °F 93% 30.09 in 3.0 mi SSW 3.5 mph - N/A   Overcast
10:19 AM 66.0 °F 62.1 °F 87% 30.12 in 4.0 mi West 3.5 mph - N/A   Overcast
10:53 AM 66.0 °F 62.1 °F 87% 30.09 in 4.0 mi WSW 4.6 mph - 0.00 in Rain Light Rain
11:53 AM 66.9 °F 63.0 °F 87% 30.07 in 6.0 mi Variable 4.6 mph - 0.00 in   Overcast
12:23 PM 69.1 °F 63.0 °F 81% 30.10 in 6.0 mi West 3.5 mph - N/A   Haze
12:53 PM 70.0 °F 63.0 °F 78% 30.07 in 6.0 mi Calm Calm - N/A   Haze
1:20 PM 73.0 °F 63.0 °F 71% 30.09 in 8.0 mi Variable 6.9 mph - N/A   Overcast
1:53 PM 72.0 °F 63.0 °F 73% 30.04 in 8.0 mi NW 4.6 mph - N/A   Mostly Cloudy
2:08 PM 73.0 °F 63.0 °F 71% 30.07 in 8.0 mi Variable 3.5 mph - N/A Thunderstorm Overcast
2:37 PM 73.0 °F 62.1 °F 68% 30.07 in 8.0 mi Variable 5.8 mph - 0.00 in Rain Light Rain
2:53 PM 73.0 °F 62.1 °F 68% 30.03 in 10.0 mi NW 3.5 mph - 0.01 in   Overcast
3:04 PM 73.9 °F 63.0 °F 68% 30.06 in 10.0 mi Variable 3.5 mph - N/A Thunderstorm Overcast
3:19 PM 73.0 °F 63.0 °F 71% 30.06 in 10.0 mi Calm Calm - N/A   Overcast
3:53 PM 75.0 °F 60.1 °F 60% 30.01 in 10.0 mi West 9.2 mph - 0.00 in Rain Light Rain
4:53 PM 70.0 °F 64.0 °F 81% 30.03 in 7.0 mi NW 3.5 mph - 0.00 in   Mostly Cloudy
5:53 PM 72.0 °F 60.1 °F 66% 30.04 in 10.0 mi West 6.9 mph - N/A   Overcast
6:53 PM 70.0 °F 60.1 °F 71% 30.04 in 10.0 mi West 5.8 mph - N/A   Mostly Cloudy
7:53 PM 68.0 °F 61.0 °F 78% 30.07 in 10.0 mi Calm Calm - N/A   Partly Cloudy
8:53 PM 66.0 °F 61.0 °F 84% 30.07 in 10.0 mi West 4.6 mph - N/A   Clear
9:53 PM 62.1 °F 59.0 °F 90% 30.09 in 6.0 mi Calm Calm - N/A   Mostly Cloudy
10:24 PM 63.0 °F 60.1 °F 90% 30.12 in 7.0 mi Calm Calm - N/A   Overcast
10:33 PM 63.0 °F 60.1 °F 90% 30.12 in 7.0 mi Calm Calm - N/A   Overcast
10:48 PM 62.6 °F 60.8 °F 94% 30.12 in 7.0 mi Calm Calm - N/A   Scattered Clouds
10:53 PM 62.1 °F 59.0 °F 90% 30.09 in 5.0 mi Calm Calm - N/A   Scattered Clouds
11:20 PM 62.1 °F 59.0 °F 90% 30.12 in 1.8 mi Calm Calm - N/A   Partly Cloudy
11:29 PM 62.1 °F 59.0 °F 90% 30.12 in 4.0 mi Calm Calm - N/A   Clear
11:42 PM 61.0 °F 59.0 °F 93% 30.12 in 1.8 mi Calm Calm - N/A   Clear
11:53 PM 61.0 °F 59.0 °F 93% 30.09 in 0.8 mi Calm Calm - N/A   Clear
11:58 PM 60.1 °F 57.9 °F 93% 30.12 in 0.2 mi Calm Calm - N/A Fog Fog